Regional Weather Roundup
Issued by NWS

Home | Current Version | Previous Version | Text Only | Print | Product List | Glossary Off
Versions: 1 2 3 4 5 6 7 8 9 10 11 12 13 14 15 16 17 18 19 20 21 22 23 24 25 26 27 28 29 30 31 32 33 34 35 36 37 38 39 40 41 42 43 44 45 46 47 48 49 50

000
ASUS43 KMKX 230500
RWRWI

WISCONSIN REGIONAL WEATHER ROUNDUP
NATIONAL WEATHER SERVICE MILWAUKEE/SULLIVAN WI
1200 AM CDT FRI JUN 23 2017

NOTE: "FAIR" INDICATES FEW OR NO CLOUDS BELOW 12,000 FEET WITH NO
SIGNIFICANT WEATHER AND/OR OBSTRUCTIONS TO VISIBILITY.

WIZ001-002-006>008-014>016-023>028-230600-
NORTHWEST WISCONSIN

CITY           SKY/WX    TMP DP  RH WIND       PRES   REMARKS
SUPERIOR ARPT  NOT AVBL
ASHLAND        PTCLDY    58  53  84 S7        29.70R
HAYWARD        PTCLDY    56  53  90 CALM      29.72F
SIREN          CLEAR     61  52  71 CALM      29.73S
CUMBERLAND     CLOUDY    61  57  88 W7        29.74S
RICE LAKE      CLOUDY    63  60  90 W6        29.75S
CHETEK         CLOUDY    61  61 100 W3        29.73F
LADYSMITH      CLOUDY    60  59  97 CALM      29.74F
EAU CLAIRE     NOT AVBL
MENOMONIE      CLOUDY    64  63  97 W6        29.73S
NEW RICHMOND   CLOUDY    61  60  96 W6        29.75S
OSCEOLA        PTCLDY    61  61 100 CALM      29.77S
$$

WIZ003>005-009-010-017-018-230600-
NORTH CENTRAL WISCONSIN

CITY           SKY/WX    TMP DP  RH WIND       PRES   REMARKS
MANITOWISH WTR CLOUDY    54  54 100 CALM      29.71F
ARBOR VITAE    CLOUDY    57  56  97 CALM      29.71F
WOODRUFF       CLOUDY    57  56  97 CALM      29.71F
RHINELANDER    PTCLDY    58  58 100 W7        29.71F FOG
EAGLE RIVER    FOG       54  54 100 CALM      29.71S VSB 1/2
LAND O LAKES   CLOUDY    56  56 100 W3        29.72S
PHILLIPS       CLEAR     57  57 100 CALM      29.71F
TOMAHAWK       NOT AVBL
MEDFORD        MOCLDY    60  60  98 NW3       29.72S
MERRILL        CLOUDY    61  61 100 CALM      29.71F FOG
$$

WIZ029-030-035-036-043>047-230600-
CENTRAL WISCONSIN

CITY           SKY/WX    TMP DP  RH WIND       PRES   REMARKS
WAUSAU         CLOUDY    63  62  97 NW3       29.69F
MOSINEE        CLOUDY    63  63 100 CALM      29.72F
MARSHFIELD     CLOUDY    63  61  93 W5        29.71S
STEVENS POINT  CLOUDY    62  62 100 CALM      29.71S FOG
WAUPACA        RAIN      67  67  99 CALM      29.71S
WAUTOMA        RAIN      65  65 100 CALM      29.71S
WISC RAPIDS    CLOUDY    66  65  96 CALM      29.71F FOG
CAMP DOUGLAS   CLOUDY    66  66 100 S5        29.71F
$$

WIZ011>013-019>022-031-037>040-048>050-230600-
NORTHEAST WISCONSIN

CITY           SKY/WX    TMP DP  RH WIND       PRES   REMARKS
ANTIGO         DRIZZLE   62  62  99 W3        29.71F
SHAWANO        CLOUDY    67  65  94 CALM      29.69F
OCONTO         CLOUDY    65  65  99 CALM      29.68F
STURGEON BAY     N/A     66  66 100 S5          N/A
GREEN BAY      MOCLDY    66  66 100 SW3       29.69F
MANITOWOC      LGT RAIN  66  64  94 SW5       29.71S
APPLETON       CLOUDY    64  64 100 S3        29.69F
CLINTONVILLE   CLOUDY    64  64 100 CALM      29.69F
OSHKOSH        LGT RAIN  67  65  93 CALM      29.71R
$$

WIZ032>034-041-042-053>061-230600-
SOUTHWEST WISCONSIN

CITY           SKY/WX    TMP DP  RH WIND       PRES   REMARKS
LA CROSSE      CLOUDY    69  69 100 CALM      29.71S
SPARTA         HVY RAIN  64  64 100 SW3       29.73R
VIROQUA        CLOUDY    65  65 100 NE7       29.73S VSB 1/4
BOSCOBEL       TSTM      68  66  93 VRB6      29.67R
PRAIRIE DU CHI LGT RAIN  70  67  91 NW5       29.68S
PLATTEVILLE    CLOUDY    75  73  96 S5        29.67F
$$

WIZ056-057-062-063-064-067-068-230600-
SOUTH CENTRAL WISCONSIN

CITY           SKY/WX    TMP DP  RH WIND       PRES   REMARKS
REEDSBURG      LGT RAIN  64  64 100 CALM      29.71F
BARABOO/DELLS  RAIN      64  63  94 N6        29.72F
LONE ROCK      TSTM      66  64  93 N10       29.67F FOG
MINERAL POINT  LGT RAIN  72  72 100 NW10G16   29.69S
MADISON        CLOUDY    69  65  86 VRB7      29.70R
MIDDLETON      CLOUDY    69  68  94 N3        29.70R
WATERTOWN      CLOUDY    68  68 100 NE5       29.68S
MONROE         PTCLDY    73  70  88 S12       29.67F
JANESVILLE     CLEAR     77  70  78 S8        29.67F
$$

WIZ051-052-058>065-066-070>072-230600-
SOUTHEAST WISCONSIN

CITY           SKY/WX    TMP DP  RH WIND       PRES   REMARKS
MILWAUKEE      CLOUDY    69  66  90 CALM      29.68S
WAUKESHA       CLOUDY    64  64 100 NE3       29.70F
MILWAUKEE/TIMM CLOUDY    66  63  88 CALM      29.70R
RACINE         CLOUDY    69  66  90 N6        29.69S
KENOSHA        CLOUDY    75  71  87 SW10      29.67F
FOND DU LAC    TSTM      67  64  90 CALM      29.70F
SHEBOYGAN      CLOUDY    67  67 100 NE6       29.71F
WEST BEND      CLOUDY    66  66 100 N5        29.71S
JUNEAU         CLOUDY    67  64  90 N6        29.71S
$$

LSZ147-162-230600-
LAKE SUPERIOR

STATION/POSITION TIME  TEMP    WIND        PRES    WAVE
                       AIR SEA DIR/SP/G            HT/PER
                 (UTC) (F)     (DEG/KT/KT) (MB)    (FT/S)
W MID LAKE BUOY  0350   52 39  260/ 16/ 17 1004.6R   1
DEVILS ISLAND    0400   60     300/  9/ 10 1004.7F
PORT WING        0349   62     280/ 15/ 27 1006.1
SAXON HARBOR     0430   64     210/  5/  6 1005.1R
$$

LMZ867-665-643>646-230600-
LAKE MICHIGAN

STATION/POSITION TIME  TEMP    WIND        PRES    WAVE
                       AIR SEA DIR/SP/G            HT/PER
                 (UTC) (F)     (DEG/KT/KT) (MB)    (FT/S)
CHAMBERS ISLAND  0440   66     220/  3/  4 1004.7S
N MID LAKE BUOY  0350   61 54  220/  6/  6 1005.0F   2/ 5
NORTHPORT PIER   0440   65     250/  2/  4 1004.4S
KEWAUNEE LAKESHO 0430   62     300/  1/  3 1005.2F
SHEBOYGAN LAKESH 0400   62     360/  9/  9 1005.7R
PORT WASHINGTON  0430   63      10/  2/  4 1006.4S
ATWATER BUOY     0309   63 58  340/  4/  6 1005.6F
MILWAUKEE LAKESH 0430   67     350/  3/  3   N/A
S MID LAKE BUOY  0350   67 61  190/ 17/ 19 1005.0F   2/ 4
KENOSHA   LAKESH 0400   69     190/  8/ 11 1004.7
$$

TC  - TEMPERATURE IN CELSIUS
VSB - VISIBILITY IN STATUTE MILES
WCI - WIND CHILL INDEX
HX  - HEAT INDEX




USA.gov is the U.S. government's official web portal to all federal, state and local government web resources and services.